Location: 22
(39.7117°N, 89.5929°W)
Time: 08:22:11
(UTC-05:00)

Vanguard 3 - Visible Passes

Search period start: 29 September 2023 00:00
Search period end: 09 October 2023 00:00
Orbit: 508 x 3242 km, 33.3° (Epoch: 28 September)

Date Brightness Start Highest point End Pass type
(mag) Time Alt. Az. Time Alt. Az. Time Alt. Az.
29 Sep 8.5 20:03:04 10° WSW 20:14:47 54° S 20:18:39 29° ESE visible
29 Sep 9.3 22:18:42 10° W 22:22:59 26° WSW 22:22:59 26° WSW visible
30 Sep 8.0 20:59:27 10° W 21:09:55 55° S 21:10:37 53° SSE visible
01 Oct 8.8 19:39:42 10° WSW 19:52:47 58° S 19:58:15 21° ESE visible
01 Oct 8.9 21:55:54 10° W 22:02:35 37° WSW 22:02:35 37° WSW visible
02 Oct 8.2 20:36:17 10° W 20:48:01 58° S 20:50:12 45° SE visible
02 Oct 10.0 22:52:28 10° W 22:54:31 16° WSW 22:54:31 16° WSW visible
03 Oct 9.0 19:16:13 10° WSW 19:30:40 61° S 19:37:48 15° ESE visible
03 Oct 8.6 21:32:56 10° W 21:42:08 45° SW 21:42:08 45° SW visible
04 Oct 8.6 20:12:58 10° W 20:25:59 59° S 20:29:44 34° SE visible
04 Oct 9.7 22:29:43 10° W 22:34:04 22° WSW 22:34:04 22° WSW visible
05 Oct 9.3 18:52:40 10° WSW 19:08:23 64° S 19:17:20 10° E visible
05 Oct 8.6 21:09:47 10° W 21:20:55 47° SSW 21:21:40 46° S visible
06 Oct 9.0 19:49:33 10° W 20:03:49 60° SSW 20:09:16 25° ESE visible
06 Oct 9.5 22:06:47 10° W 22:13:37 27° SW 22:13:37 27° SW visible
07 Oct 8.8 20:46:30 10° W 20:58:49 47° SSW 21:01:14 39° SSE visible
07 Oct 10.5 23:05:03 10° WSW 23:05:34 11° WSW 23:05:34 11° WSW visible
08 Oct 9.3 19:26:02 10° W 19:41:30 61° SSW 19:48:52 18° ESE visible
08 Oct 9.4 21:43:41 10° W 21:53:12 30° SW 21:53:13 30° SW visible
